Rawlins, WY

11:17 PM MDT on September 21, 2017 (GMT -0600)
Rawlins Municipal

Weather History for KRWL - November, 2013

Change the Weather History Date:

Monday, November 4, 2013

  Actual Average Record
Temperature  
Mean Temperature 25 °F 36 °F  
Max Temperature 32 °F 47 °F 64 °F (1977)
Min Temperature 17 °F 24 °F 0 °F (1961)
Degree Days  
Heating Degree Days 40 29  
Month to date heating degree days 119 114  
Since 1 July heating degree days 1108 1173  
Cooling Degree Days 0 0  
Month to date cooling degree days 0 0  
Year to date cooling degree days 371 186  
Moisture  
Dew Point 14 °F    
Average Humidity 62    
Maximum Humidity 88    
Minimum Humidity 36    
Precipitation  
Precipitation T in 0.03 in 0.37 in (1960)
Month to date precipitation T 0.09  
Year to date precipitation 7.49 8.36  
Sea Level Pressure  
Sea Level Pressure 30.02 in    
Wind  
Wind Speed 10 mph (SW)    
Max Wind Speed 18 mph    
Max Gust Speed 24 mph    
Visibility 8 miles    
Events Snow    
T = Trace of Precipitation, MM = Missing Value Source: NWS Daily Summary

Daily Weather History Graph

Daily Weather History Graph

Search for Another Location

Airport or City:

Trip Planner

Search our weather history database for the weather conditions in past years. The results will help you decide how hot, cold, wet, or windy it might be!

Date:

Astronomy

Nov. 04, 2013 Rise Set
Actual Time 6:45 AM MST 4:59 PM MST
Civil Twilight 6:15 AM MST 5:28 PM MST
Nautical Twilight 5:42 AM MST 6:01 PM MST
Astronomical Twilight 5:10 AM MST 6:33 PM MST
Moon 7:59 AM MST (11/4) 6:05 PM MST (11/4)
Length of Visible Light 11h 12m
Length of Day
10h 13m
New Moon, 2% of the Moon is Illuminated
Nov 4
New Moon
Nov 9
First Quarter
Nov 17
Full
Nov 25
Last Quarter
Dec 2
New

Hourly Weather History & Observations

Time (MST) Temp. Windchill Dew Point Humidity Pressure Visibility Wind Dir Wind Speed Gust Speed Precip Events Conditions
12:53 AM 18.0 °F 6.9 °F 10.0 °F 71% 29.97 in 10.0 mi SW 9.2 mph - N/A   Clear
1:53 AM 18.0 °F 6.1 °F 10.0 °F 71% 29.99 in 10.0 mi SW 10.4 mph - N/A   Clear
2:53 AM 17.1 °F 6.6 °F 10.0 °F 74% 30.02 in 10.0 mi SW 8.1 mph - N/A   Clear
3:53 AM 18.0 °F 6.9 °F 10.9 °F 74% 30.04 in 10.0 mi WSW 9.2 mph - N/A   Clear
4:53 AM 17.1 °F 7.6 °F 10.0 °F 74% 30.05 in 10.0 mi WSW 6.9 mph - N/A   Clear
5:53 AM 18.0 °F 11.1 °F 10.9 °F 74% 30.06 in 10.0 mi SSW 4.6 mph - N/A   Clear
6:53 AM 19.0 °F 9.0 °F 10.9 °F 71% 30.04 in 10.0 mi SW 8.1 mph - N/A   Partly Cloudy
7:53 AM 21.0 °F 11.4 °F 12.0 °F 68% 30.06 in 10.0 mi West 8.1 mph - N/A   Clear
8:53 AM 25.0 °F 14.2 °F 12.0 °F 58% 30.06 in 10.0 mi SW 11.5 mph - N/A   Overcast
9:53 AM 27.0 °F 15.2 °F 10.9 °F 51% 30.06 in 10.0 mi SW 15.0 mph - N/A   Clear
10:53 AM 28.0 °F 17.5 °F 10.0 °F 47% 30.05 in 10.0 mi WSW 12.7 mph - N/A   Clear
11:53 AM 30.0 °F 19.5 °F 9.0 °F 41% 30.03 in 10.0 mi WSW 13.8 mph - N/A   Partly Cloudy
12:53 PM 30.9 °F 19.8 °F 7.0 °F 37% 30.00 in 10.0 mi SW 16.1 mph 19.6 mph N/A   Overcast
1:53 PM 30.9 °F 20.7 °F 9.0 °F 40% 30.00 in 10.0 mi SW 13.8 mph 24.2 mph N/A   Overcast
2:53 PM 28.9 °F 19.2 °F 10.9 °F 47% 30.02 in 10.0 mi SW 11.5 mph - N/A   Mostly Cloudy
3:53 PM 28.0 °F 18.1 °F 14.0 °F 56% 30.03 in 10.0 mi SW 11.5 mph - N/A   Overcast
4:53 PM 28.0 °F 19.3 °F 15.1 °F 58% 30.03 in 10.0 mi SW 9.2 mph - N/A   Overcast
5:25 PM 26.6 °F 18.2 °F 17.6 °F 69% 29.93 in 2.5 mi SW 8.1 mph - 0.00 in Snow Light Snow
5:48 PM 24.8 °F 16.9 °F 19.4 °F 80% 29.94 in 3.0 mi South 6.9 mph - 0.00 in Snow Light Snow
5:53 PM 24.1 °F 16.0 °F 21.0 °F 88% 30.07 in 3.0 mi South 6.9 mph - 0.00 in Snow Light Snow
6:53 PM 25.0 °F 15.5 °F 19.9 °F 81% 30.07 in 4.0 mi SW 9.2 mph - 0.00 in Snow Light Snow
7:53 PM 25.0 °F 17.1 °F 19.9 °F 81% 30.06 in 6.0 mi WSW 6.9 mph - 0.00 in Snow Light Snow
8:29 PM 24.8 °F 15.3 °F 19.4 °F 80% 29.96 in 2.5 mi WSW 9.2 mph - 0.00 in Snow Light Snow
8:41 PM 24.8 °F 16.1 °F 21.2 °F 86% 29.96 in 3.0 mi SW 8.1 mph - 0.00 in Snow Light Snow
8:53 PM 24.1 °F 14.4 °F 21.0 °F 88% 30.06 in 2.5 mi SW 9.2 mph - 0.00 in Snow Light Snow
9:04 PM 24.8 °F 16.1 °F 19.4 °F 80% 29.97 in 3.0 mi SW 8.1 mph - 0.00 in Snow Light Snow
9:53 PM 24.1 °F 15.2 °F 19.0 °F 81% 30.05 in 10.0 mi SW 8.1 mph - 0.00 in   Overcast
10:53 PM 24.1 °F 15.2 °F 19.0 °F 81% 30.04 in 10.0 mi WSW 8.1 mph - N/A   Overcast
11:53 PM 24.1 °F 13.7 °F 17.1 °F 75% 30.05 in 10.0 mi WSW 10.4 mph - N/A   Overcast